| time (UTC) | temp F | wind direction | speed knots | gust knots | rain 1hr in | rain 24hr in | rain mn in | humidity % | barometer mb |
| 20260510022526 | 78 | 137 | 4.3 | 7.8 | 0.00 | 0.00 | 0.00 | 44 | 1009.3 |
| 20260510022020 | 78 | 127 | 0.9 | 1.7 | 0.00 | 0.00 | 0.00 | 44 | 1009.1 |
| 20260510021516 | 78 | 149 | 1.7 | 4.3 | 0.00 | 0.00 | 0.00 | 43 | 1009.2 |
| 20260510021014 | 79 | 156 | 2.6 | 4.3 | 0.00 | 0.00 | 0.00 | 43 | 1009.2 |
| 20260510020509 | 79 | 153 | 0.9 | 1.7 | 0.00 | 0.00 | 0.00 | 43 | 1008.9 |
| 20260510020005 | 79 | 139 | 2.6 | 4.3 | 0.00 | 0.00 | 0.00 | 42 | 1008.5 |
| 20260510015500 | 79 | 118 | 2.6 | 5.2 | 0.00 | 0.00 | 0.00 | 42 | 1008.2 |
| 20260510014956 | 79 | 121 | 2.6 | 4.3 | 0.00 | 0.00 | 0.00 | 41 | 1007.7 |
| 20260510014454 | 79 | 151 | 0.9 | 2.6 | 0.00 | 0.00 | 0.00 | 41 | 1007.6 |
| 20260510013950 | 79 | 139 | 2.6 | 5.2 | 0.00 | 0.00 | 0.00 | 40 | 1007.5 |
| 20260510013445 | 79 | 134 | 0.0 | 1.7 | 0.00 | 0.00 | 0.00 | 39 | 1007.8 |
| 20260510012941 | 79 | 134 | 2.6 | 5.2 | 0.00 | 0.00 | 0.00 | 39 | 1007.6 |
| 20260510012436 | 79 | 180 | 0.9 | 0.9 | 0.00 | 0.00 | 0.00 | 39 | 1008.0 |
| 20260510011931 | 80 | 161 | 0.0 | 0.9 | 0.00 | 0.00 | 0.00 | 38 | 1008.0 |
| 20260510011425 | 80 | 162 | 1.7 | 4.3 | 0.00 | 0.00 | 0.00 | 37 | 1008.0 |
| 20260510010922 | 80 | 126 | 0.9 | 1.7 | 0.00 | 0.00 | 0.00 | 37 | 1008.0 |
| 20260510010420 | 80 | 143 | 1.7 | 2.6 | 0.00 | 0.00 | 0.00 | 37 | 1008.0 |
| 20260510005916 | 80 | 102 | 4.3 | 7.0 | 0.00 | 0.00 | 0.00 | 36 | 1008.1 |
| 20260510005412 | 80 | 132 | 0.9 | 0.9 | 0.00 | 0.00 | 0.00 | 38 | 1007.9 |
| 20260510004909 | 80 | 149 | 0.9 | 0.9 | 0.00 | 0.00 | 0.00 | 39 | 1008.2 |
| 20260510004407 | 80 | 111 | 0.9 | 1.7 | 0.00 | 0.00 | 0.00 | 38 | 1007.8 |
| 20260510003904 | 81 | 137 | 0.9 | 1.7 | 0.00 | 0.00 | 0.00 | 38 | 1008.1 |
| 20260510003401 | 81 | 124 | 0.0 | 0.9 | 0.00 | 0.00 | 0.00 | 38 | 1008.2 |
| 20260510002900 | 81 | 148 | 1.7 | 4.3 | 0.00 | 0.00 | 0.00 | 37 | 1008.1 |
| 20260510002358 | 81 | 112 | 2.6 | 4.3 | 0.00 | 0.00 | 0.00 | 36 | 1008.0 |
| 20260510001854 | 81 | 136 | 0.9 | 2.6 | 0.00 | 0.00 | 0.00 | 36 | 1007.8 |
| 20260510001352 | 82 | 137 | 0.9 | 1.7 | 0.00 | 0.00 | 0.00 | 36 | 1007.6 |
| 20260510000848 | 82 | 165 | 0.0 | 0.9 | 0.00 | 0.00 | 0.00 | 36 | 1007.9 |
| 20260510000348 | 82 | 143 | 1.7 | 2.6 | 0.00 | 0.00 | 0.00 | 34 | 1008.2 |
| 20260509235842 | 82 | 187 | 2.6 | 4.3 | 0.00 | 0.00 | 0.00 | 35 | 1008.1 |
| 20260509235338 | 82 | 156 | 0.0 | 0.9 | 0.00 | 0.00 | 0.00 | 35 | 1008.0 |
| 20260509234835 | 83 | 119 | 0.0 | 0.9 | 0.00 | 0.00 | 0.00 | 34 | 1007.9 |
| 20260509234332 | 83 | 133 | 0.0 | 0.9 | 0.00 | 0.00 | 0.00 | 34 | 1008.2 |
| 20260509233830 | 84 | 123 | 0.0 | 0.9 | 0.00 | 0.00 | 0.00 | 33 | 1008.1 |
| 20260509233327 | 84 | 119 | 1.7 | 2.6 | 0.00 | 0.00 | 0.00 | 33 | 1008.2 |
| 20260509232822 | 85 | 151 | 2.6 | 4.3 | 0.00 | 0.00 | 0.00 | 31 | 1008.0 |
| 20260509232321 | 85 | 143 | 0.9 | 1.7 | 0.00 | 0.00 | 0.00 | 31 | 1008.2 |
| 20260509231817 | 85 | 197 | 2.6 | 4.3 | 0.00 | 0.00 | 0.00 | 31 | 1008.1 |
| 20260509231313 | 85 | 145 | 0.9 | 1.7 | 0.00 | 0.00 | 0.00 | 31 | 1008.2 |
| 20260509230812 | 85 | 144 | 0.0 | 0.0 | 0.00 | 0.00 | 0.00 | 31 | 1008.6 |
| 20260509230308 | 86 | 158 | 0.9 | 2.6 | 0.00 | 0.00 | 0.00 | 31 | 1008.5 |
| 20260509225803 | 86 | 152 | 0.0 | 0.9 | 0.00 | 0.00 | 0.00 | 31 | 1008.2 |
| 20260509225300 | 86 | 146 | 0.9 | 1.7 | 0.00 | 0.00 | 0.00 | 31 | 1008.6 |
| 20260509224756 | 85 | 136 | 3.5 | 6.1 | 0.00 | 0.00 | 0.00 | 31 | 1008.2 |
| 20260509224253 | 85 | 147 | 1.7 | 1.7 | 0.00 | 0.00 | 0.00 | 30 | 1008.8 |
| 20260509223749 | 86 | 145 | 2.6 | 4.3 | 0.00 | 0.00 | 0.00 | 30 | 1008.6 |
| 20260509223246 | 86 | 155 | 0.0 | 0.9 | 0.00 | 0.00 | 0.00 | 31 | 1008.7 |
| 20260509222743 | 86 | 166 | 0.0 | 0.9 | 0.00 | 0.00 | 0.00 | 30 | 1009.0 |
| 20260509222239 | 86 | 108 | 0.0 | 0.0 | 0.00 | 0.00 | 0.00 | 30 | 1009.1 |
| 20260509221734 | 86 | 133 | 0.0 | 0.9 | 0.00 | 0.00 | 0.00 | 30 | 1008.9 |
| 20260509221231 | 86 | 111 | 1.7 | 2.6 | 0.00 | 0.00 | 0.00 | 30 | 1009.1 |
| 20260509220727 | 87 | 120 | 1.7 | 1.7 | 0.00 | 0.00 | 0.00 | 29 | 1009.0 |
| 20260509220224 | 86 | 110 | 0.0 | 0.9 | 0.00 | 0.00 | 0.00 | 32 | 1009.3 |
| 20260509215719 | 86 | 128 | 0.9 | 2.6 | 0.00 | 0.00 | 0.00 | 31 | 1009.1 |
| 20260509215216 | 86 | 122 | 3.5 | 6.1 | 0.00 | 0.00 | 0.00 | 30 | 1009.0 |
| 20260509214713 | 86 | 124 | 1.7 | 4.3 | 0.00 | 0.00 | 0.00 | 30 | 1009.1 |
| 20260509214210 | 86 | 69 | 0.9 | 0.9 | 0.00 | 0.00 | 0.00 | 31 | 1009.1 |
| 20260509213707 | 86 | 177 | 0.0 | 1.7 | 0.00 | 0.00 | 0.00 | 31 | 1009.3 |
| 20260509213202 | 86 | 160 | 0.9 | 2.6 | 0.00 | 0.00 | 0.00 | 31 | 1009.1 |
| 20260509212700 | 86 | 124 | 1.7 | 2.6 | 0.00 | 0.00 | 0.00 | 29 | 1009.2 |
| 20260509212157 | 86 | 160 | 1.7 | 1.7 | 0.00 | 0.00 | 0.00 | 31 | 1009.3 |
| 20260509211653 | 86 | 149 | 0.9 | 1.7 | 0.00 | 0.00 | 0.00 | 33 | 1009.3 |
| 20260509211149 | 86 | 150 | 2.6 | 4.3 | 0.00 | 0.00 | 0.00 | 30 | 1009.3 |
| 20260509210646 | 86 | 122 | 0.0 | 1.7 | 0.00 | 0.00 | 0.00 | 31 | 1009.4 |
| 20260509210143 | 87 | 146 | 0.0 | 0.9 | 0.00 | 0.00 | 0.00 | 33 | 1009.7 |
| 20260509205638 | 86 | 157 | 0.0 | 0.0 | 0.00 | 0.00 | 0.00 | 32 | 1009.7 |
| 20260509205133 | 86 | 130 | 0.9 | 1.7 | 0.00 | 0.00 | 0.00 | 32 | 1009.6 |
| 20260509204629 | 86 | 70 | 1.7 | 2.6 | 0.00 | 0.00 | 0.00 | 31 | 1009.8 |
| 20260509204126 | 86 | 103 | 2.6 | 2.6 | 0.00 | 0.00 | 0.00 | 31 | 1009.7 |
| 20260509203622 | 86 | 324 | 2.6 | 4.3 | 0.00 | 0.00 | 0.00 | 31 | 1009.8 |
| 20260509203120 | 86 | 81 | 2.6 | 4.3 | 0.00 | 0.00 | 0.00 | 32 | 1009.7 |
| 20260509202620 | 86 | 133 | 3.5 | 5.2 | 0.00 | 0.00 | 0.00 | 31 | 1009.7 |
| 20260509202115 | 87 | 160 | 0.9 | 1.7 | 0.00 | 0.00 | 0.00 | 33 | 1009.8 |
| 20260509201610 | 87 | 154 | 1.7 | 4.3 | 0.00 | 0.00 | 0.00 | 31 | 1009.7 |
| 20260509201108 | 86 | 153 | 0.0 | 0.9 | 0.00 | 0.00 | 0.00 | 33 | 1010.1 |
| 20260509200603 | 86 | 73 | 0.9 | 0.9 | 0.00 | 0.00 | 0.00 | 33 | 1009.9 |
| 20260509200059 | 86 | 77 | 2.6 | 2.6 | 0.00 | 0.00 | 0.00 | 34 | 1010.1 |
| 20260509195555 | 86 | 144 | 0.0 | 0.0 | 0.00 | 0.00 | 0.00 | 34 | 1010.2 |
| 20260509195050 | 85 | 133 | 0.0 | 0.9 | 0.00 | 0.00 | 0.00 | 35 | 1010.4 |
| 20260509194549 | 85 | 60 | 1.7 | 1.7 | 0.00 | 0.00 | 0.00 | 36 | 1010.0 |
| 20260509194048 | 85 | 38 | 0.9 | 1.7 | 0.00 | 0.00 | 0.00 | 34 | 1010.5 |
| 20260509193542 | 85 | 158 | 0.0 | 0.0 | 0.00 | 0.00 | 0.00 | 34 | 1010.5 |
| 20260509193039 | 85 | 87 | 1.7 | 2.6 | 0.00 | 0.00 | 0.00 | 36 | 1010.6 |
| 20260509192536 | 85 | 141 | 0.0 | 0.9 | 0.00 | 0.00 | 0.00 | 35 | 1010.5 |
| 20260509192030 | 85 | 100 | 0.9 | 0.9 | 0.00 | 0.00 | 0.00 | 33 | 1010.4 |
| 20260509191525 | 86 | 128 | 0.0 | 0.9 | 0.00 | 0.00 | 0.00 | 35 | 1010.6 |
| 20260509191021 | 85 | 130 | 1.7 | 2.6 | 0.00 | 0.00 | 0.00 | 35 | 1010.5 |
| 20260509190519 | 85 | 36 | 4.3 | 5.2 | 0.00 | 0.00 | 0.00 | 34 | 1010.5 |
| 20260509190017 | 84 | 169 | 0.0 | 0.9 | 0.00 | 0.00 | 0.00 | 39 | 1010.9 |
| 20260509185514 | 86 | 66 | 0.9 | 1.7 | 0.00 | 0.00 | 0.00 | 37 | 1011.0 |
| 20260509185010 | 85 | 176 | 0.9 | 0.9 | 0.00 | 0.00 | 0.00 | 32 | 1011.0 |
| 20260509184509 | 85 | 154 | 0.0 | 0.9 | 0.00 | 0.00 | 0.00 | 34 | 1010.9 |
| 20260509184004 | 86 | 108 | 2.6 | 5.2 | 0.00 | 0.00 | 0.00 | 38 | 1011.1 |
| 20260509183459 | 85 | 199 | 1.7 | 1.7 | 0.00 | 0.00 | 0.00 | 30 | 1011.3 |
| 20260509182955 | 84 | 165 | 1.7 | 2.6 | 0.00 | 0.00 | 0.00 | 32 | 1010.9 |
| 20260509182452 | 84 | 127 | 0.0 | 0.9 | 0.00 | 0.00 | 0.00 | 37 | 1011.0 |
| 20260509181949 | 85 | 148 | 2.6 | 5.2 | 0.00 | 0.00 | 0.00 | 36 | 1011.3 |
| 20260509181447 | 84 | 155 | 0.0 | 0.0 | 0.00 | 0.00 | 0.00 | 39 | 1011.3 |
| 20260509180944 | 84 | 113 | 0.0 | 0.9 | 0.00 | 0.00 | 0.00 | 39 | 1011.5 |
| 20260509180439 | 84 | 137 | 0.0 | 1.7 | 0.00 | 0.00 | 0.00 | 40 | 1011.5 |
| 20260509175936 | 83 | 177 | 1.7 | 1.7 | 0.00 | 0.00 | 0.00 | 40 | 1011.4 |
| 20260509175427 | 83 | 175 | 0.0 | 0.9 | 0.00 | 0.00 | 0.00 | 44 | 1011.7 |
| 20260509174923 | 82 | 192 | 1.7 | 2.6 | 0.00 | 0.00 | 0.00 | 42 | 1011.8 |
| 20260509174419 | 82 | 155 | 0.9 | 2.6 | 0.00 | 0.00 | 0.00 | 44 | 1012.0 |
| 20260509173916 | 82 | 165 | 0.9 | 1.7 | 0.00 | 0.00 | 0.00 | 44 | 1011.8 |
| 20260509173415 | 82 | 131 | 0.9 | 2.6 | 0.00 | 0.00 | 0.00 | 47 | 1011.9 |
| 20260509172912 | 82 | 182 | 1.7 | 2.6 | 0.00 | 0.00 | 0.00 | 46 | 1012.1 |
| 20260509172409 | 82 | 186 | 4.3 | 5.2 | 0.00 | 0.00 | 0.00 | 44 | 1012.3 |
| 20260509171905 | 82 | 203 | 1.7 | 2.6 | 0.00 | 0.00 | 0.00 | 46 | 1012.0 |
| 20260509171401 | 82 | 156 | 0.0 | 0.0 | 0.00 | 0.00 | 0.00 | 45 | 1012.2 |
| 20260509170857 | 82 | 177 | 2.6 | 4.3 | 0.00 | 0.00 | 0.00 | 44 | 1012.2 |
| 20260509170353 | 82 | 120 | 1.7 | 2.6 | 0.00 | 0.00 | 0.00 | 42 | 1012.4 |
| 20260509165848 | 82 | 130 | 0.0 | 0.0 | 0.00 | 0.00 | 0.00 | 42 | 1012.4 |
| 20260509165343 | 81 | 128 | 0.0 | 0.0 | 0.00 | 0.00 | 0.00 | 42 | 1012.5 |
| 20260509164839 | 81 | 121 | 0.0 | 0.9 | 0.00 | 0.00 | 0.00 | 42 | 1012.6 |
| 20260509164335 | 81 | 171 | 0.9 | 0.9 | 0.00 | 0.00 | 0.00 | 46 | 1012.5 |
| 20260509163831 | 81 | 137 | 1.7 | 2.6 | 0.00 | 0.00 | 0.00 | 44 | 1012.6 |
| 20260509163323 | 81 | 36 | 4.3 | 7.8 | 0.00 | 0.00 | 0.00 | 44 | 1012.4 |
| 20260509162822 | 81 | 34 | 2.6 | 2.6 | 0.00 | 0.00 | 0.00 | 45 | 1012.4 |
| 20260509162320 | 81 | 159 | 0.0 | 0.0 | 0.00 | 0.00 | 0.00 | 43 | 1012.6 |
| 20260509161817 | 80 | 121 | 0.0 | 0.9 | 0.00 | 0.00 | 0.00 | 44 | 1012.7 |
| 20260509161314 | 80 | 158 | 0.9 | 2.6 | 0.00 | 0.00 | 0.00 | 44 | 1012.7 |
| 20260509160809 | 80 | 122 | 0.9 | 0.9 | 0.00 | 0.00 | 0.00 | 49 | 1012.6 |
| 20260509160305 | 79 | 158 | 0.0 | 0.9 | 0.00 | 0.00 | 0.00 | 52 | 1012.6 |
| 20260509155800 | 79 | 150 | 0.9 | 0.9 | 0.00 | 0.00 | 0.00 | 52 | 1012.7 |
| 20260509155257 | 77 | 161 | 0.9 | 1.7 | 0.00 | 0.00 | 0.00 | 53 | 1012.5 |
| 20260509154753 | 77 | 117 | 1.7 | 2.6 | 0.00 | 0.00 | 0.00 | 51 | 1012.4 |
| 20260509154250 | 76 | 121 | 0.9 | 0.9 | 0.00 | 0.00 | 0.00 | 56 | 1012.5 |
| 20260509153747 | 76 | 130 | 0.0 | 0.9 | 0.00 | 0.00 | 0.00 | 59 | 1012.5 |
| 20260509153243 | 75 | 133 | 0.0 | 0.9 | 0.00 | 0.00 | 0.00 | 57 | 1012.6 |
| 20260509152740 | 76 | 130 | 0.9 | 1.7 | 0.00 | 0.00 | 0.00 | 57 | 1012.6 |
| 20260509152236 | 75 | 141 | 2.6 | 2.6 | 0.00 | 0.00 | 0.00 | 58 | 1012.5 |
| 20260509151733 | 74 | 145 | 0.9 | 1.7 | 0.00 | 0.00 | 0.00 | 63 | 1012.5 |
| 20260509151229 | 75 | 126 | 0.9 | 0.9 | 0.00 | 0.00 | 0.00 | 65 | 1012.5 |
| 20260509150727 | 74 | 121 | 0.0 | 0.0 | 0.00 | 0.00 | 0.00 | 66 | 1012.3 |
| 20260509150226 | 74 | 144 | 0.0 | 0.0 | 0.00 | 0.00 | 0.00 | 68 | 1012.6 |
| 20260509145722 | 74 | 124 | 0.9 | 0.9 | 0.00 | 0.00 | 0.00 | 70 | 1012.2 |
| 20260509145217 | 73 | 146 | 0.0 | 0.0 | 0.00 | 0.00 | 0.00 | 72 | 1012.2 |
| 20260509144714 | 73 | 121 | 0.9 | 1.7 | 0.00 | 0.00 | 0.00 | 75 | 1012.5 |
| 20260509144211 | 71 | 81 | 1.7 | 1.7 | 0.00 | 0.00 | 0.00 | 79 | 1012.2 |
| 20260509143708 | 70 | 148 | 0.0 | 0.9 | 0.00 | 0.00 | 0.00 | 83 | 1012.1 |
| 20260509143205 | 69 | 157 | 0.0 | 0.0 | 0.00 | 0.00 | 0.00 | 87 | 1012.1 |
| 20260509142700 | 68 | 129 | 0.0 | 0.0 | 0.00 | 0.00 | 0.00 | 90 | 1012.1 |
| 20260509142158 | 67 | 146 | 0.0 | 0.0 | 0.00 | 0.00 | 0.00 | 92 | 1012.3 |
| 20260509141653 | 67 | 144 | 0.0 | 0.0 | 0.00 | 0.00 | 0.00 | 92 | 1012.5 |
| 20260509141150 | 67 | 141 | 0.0 | 0.0 | 0.00 | 0.00 | 0.00 | 93 | 1012.3 |
| 20260509140647 | 67 | 147 | 0.0 | 0.0 | 0.00 | 0.00 | 0.00 | 93 | 1012.3 |
| 20260509140145 | 66 | 148 | 0.0 | 0.0 | 0.00 | 0.00 | 0.00 | 94 | 1012.2 |
| 20260509135642 | 66 | 142 | 0.0 | 0.0 | 0.00 | 0.00 | 0.00 | 94 | 1012.6 |
| 20260509135140 | 66 | 139 | 0.0 | 0.0 | 0.00 | 0.00 | 0.00 | 94 | 1012.5 |
| 20260509134636 | 66 | 133 | 0.0 | 0.0 | 0.00 | 0.00 | 0.00 | 94 | 1012.4 |
| 20260509134134 | 65 | 149 | 0.0 | 0.0 | 0.00 | 0.00 | 0.00 | 94 | 1012.3 |
| 20260509133631 | 64 | 153 | 0.0 | 0.0 | 0.00 | 0.00 | 0.00 | 94 | 1012.1 |
| 20260509133128 | 64 | 138 | 0.0 | 0.0 | 0.00 | 0.00 | 0.00 | 94 | 1012.1 |
| 20260509132626 | 64 | 140 | 0.0 | 0.0 | 0.00 | 0.00 | 0.00 | 94 | 1012.3 |
| 20260509132124 | 62 | 144 | 0.0 | 0.0 | 0.00 | 0.00 | 0.00 | 94 | 1012.2 |
| 20260509131620 | 62 | 148 | 0.0 | 0.0 | 0.00 | 0.00 | 0.00 | 94 | 1012.1 |
| 20260509131117 | 62 | 146 | 0.0 | 0.0 | 0.00 | 0.00 | 0.00 | 94 | 1011.9 |
| 20260509130613 | 62 | 147 | 0.0 | 0.0 | 0.00 | 0.00 | 0.00 | 94 | 1011.9 |
| 20260509130110 | 61 | 146 | 0.0 | 0.0 | 0.00 | 0.00 | 0.00 | 94 | 1011.7 |
| 20260509125606 | 61 | 148 | 0.0 | 0.0 | 0.00 | 0.00 | 0.00 | 94 | 1011.6 |
| 20260509125103 | 61 | 153 | 0.0 | 0.0 | 0.00 | 0.00 | 0.00 | 94 | 1011.8 |
| 20260509124559 | 62 | 164 | 0.0 | 0.0 | 0.00 | 0.00 | 0.00 | 94 | 1011.8 |
| 20260509124057 | 61 | 164 | 0.0 | 0.0 | 0.00 | 0.00 | 0.00 | 94 | 1011.7 |
| 20260509123554 | 60 | 164 | 0.0 | 0.0 | 0.00 | 0.00 | 0.00 | 94 | 1011.8 |
| 20260509123051 | 58 | 165 | 0.0 | 0.0 | 0.00 | 0.00 | 0.00 | 94 | 1011.6 |
| 20260509122547 | 57 | 165 | 0.0 | 0.0 | 0.00 | 0.00 | 0.00 | 94 | 1011.4 |
| 20260509122044 | 57 | 165 | 0.0 | 0.0 | 0.00 | 0.00 | 0.00 | 94 | 1011.5 |
| 20260509121540 | 56 | 165 | 0.0 | 0.0 | 0.00 | 0.00 | 0.00 | 94 | 1011.6 |
| 20260509121038 | 56 | 165 | 0.0 | 0.0 | 0.00 | 0.00 | 0.00 | 94 | 1011.6 |
| 20260509120536 | 55 | 165 | 0.0 | 0.0 | 0.00 | 0.00 | 0.00 | 94 | 1011.6 |
| 20260509120034 | 55 | 164 | 0.0 | 0.0 | 0.00 | 0.00 | 0.00 | 94 | 1011.4 |
| 20260509115531 | 55 | 164 | 0.0 | 0.0 | 0.00 | 0.00 | 0.00 | 94 | 1011.5 |
| 20260509115029 | 54 | 164 | 0.0 | 0.0 | 0.00 | 0.00 | 0.00 | 94 | 1011.1 |
| 20260509114527 | 53 | 164 | 0.0 | 0.0 | 0.00 | 0.00 | 0.00 | 94 | 1011.3 |
| 20260509114026 | 53 | 164 | 0.0 | 0.0 | 0.00 | 0.00 | 0.00 | 93 | 1011.6 |
| 20260509113523 | 53 | 164 | 0.0 | 0.0 | 0.00 | 0.00 | 0.00 | 93 | 1011.1 |
| 20260509113021 | 53 | 164 | 0.0 | 0.0 | 0.00 | 0.00 | 0.00 | 93 | 1011.0 |
| 20260509112517 | 53 | 164 | 0.0 | 0.0 | 0.00 | 0.00 | 0.00 | 93 | 1011.0 |
| 20260509112014 | 54 | 164 | 0.0 | 0.0 | 0.00 | 0.00 | 0.00 | 93 | 1011.1 |
| 20260509111511 | 54 | 164 | 0.0 | 0.0 | 0.00 | 0.00 | 0.00 | 93 | 1010.6 |
| 20260509111009 | 54 | 164 | 0.0 | 0.0 | 0.00 | 0.00 | 0.00 | 93 | 1010.8 |
| 20260509110505 | 54 | 164 | 0.0 | 0.0 | 0.00 | 0.00 | 0.00 | 93 | 1010.5 |
| 20260509110002 | 54 | 164 | 0.0 | 0.0 | 0.00 | 0.00 | 0.00 | 93 | 1010.6 |
| 20260509105501 | 54 | 164 | 0.0 | 0.0 | 0.00 | 0.00 | 0.00 | 93 | 1010.8 |
| 20260509104958 | 54 | 164 | 0.0 | 0.0 | 0.00 | 0.00 | 0.00 | 93 | 1010.9 |
| 20260509104454 | 55 | 164 | 0.0 | 0.0 | 0.00 | 0.00 | 0.00 | 93 | 1010.8 |
| 20260509103951 | 55 | 164 | 0.0 | 0.0 | 0.00 | 0.00 | 0.00 | 93 | 1010.7 |
| 20260509103449 | 55 | 164 | 0.0 | 0.0 | 0.00 | 0.00 | 0.00 | 93 | 1010.7 |
| 20260509102947 | 55 | 164 | 0.0 | 0.0 | 0.00 | 0.00 | 0.00 | 93 | 1010.7 |
| 20260509102444 | 55 | 164 | 0.0 | 0.0 | 0.00 | 0.00 | 0.00 | 93 | 1011.0 |
| 20260509101940 | 55 | 164 | 0.0 | 0.0 | 0.00 | 0.00 | 0.00 | 93 | 1010.8 |
| 20260509101436 | 56 | 164 | 0.0 | 0.0 | 0.00 | 0.00 | 0.00 | 93 | 1011.0 |
| 20260509100934 | 56 | 164 | 0.0 | 0.0 | 0.00 | 0.00 | 0.00 | 93 | 1011.0 |
| 20260509100431 | 56 | 164 | 0.0 | 0.0 | 0.00 | 0.00 | 0.00 | 93 | 1011.5 |
| 20260509095927 | 56 | 164 | 0.0 | 0.0 | 0.00 | 0.00 | 0.00 | 93 | 1011.4 |
| 20260509095425 | 56 | 164 | 0.0 | 0.0 | 0.00 | 0.00 | 0.00 | 93 | 1011.5 |
| 20260509094922 | 57 | 165 | 0.0 | 0.0 | 0.00 | 0.00 | 0.00 | 93 | 1011.1 |
| 20260509094418 | 57 | 164 | 0.0 | 0.0 | 0.00 | 0.00 | 0.00 | 93 | 1011.7 |
| 20260509093916 | 57 | 164 | 0.0 | 0.0 | 0.00 | 0.00 | 0.00 | 93 | 1011.5 |
| 20260509093413 | 56 | 164 | 0.0 | 0.0 | 0.00 | 0.00 | 0.00 | 93 | 1011.7 |
| 20260509092912 | 57 | 165 | 0.0 | 0.0 | 0.00 | 0.00 | 0.00 | 93 | 1011.6 |
| 20260509092409 | 57 | 163 | 0.0 | 0.0 | 0.00 | 0.00 | 0.00 | 93 | 1011.4 |
| 20260509091907 | 57 | 162 | 0.0 | 0.0 | 0.00 | 0.00 | 0.00 | 93 | 1011.5 |
| 20260509091404 | 57 | 163 | 0.0 | 0.0 | 0.00 | 0.00 | 0.00 | 93 | 1011.5 |
| 20260509090901 | 57 | 162 | 0.0 | 0.0 | 0.00 | 0.00 | 0.00 | 93 | 1011.4 |
| 20260509090358 | 57 | 165 | 0.0 | 0.0 | 0.00 | 0.00 | 0.00 | 93 | 1011.5 |
| 20260509085856 | 57 | 165 | 0.0 | 0.0 | 0.00 | 0.00 | 0.00 | 93 | 1011.3 |
| 20260509085353 | 57 | 165 | 0.0 | 0.0 | 0.00 | 0.00 | 0.00 | 93 | 1011.7 |
| 20260509084849 | 58 | 166 | 0.0 | 0.0 | 0.00 | 0.00 | 0.00 | 93 | 1011.5 |
| 20260509084346 | 58 | 165 | 0.0 | 0.0 | 0.00 | 0.00 | 0.00 | 93 | 1011.3 |
| 20260509083844 | 58 | 164 | 0.0 | 0.0 | 0.00 | 0.00 | 0.00 | 93 | 1011.4 |
| 20260509083340 | 57 | 157 | 0.0 | 0.0 | 0.00 | 0.00 | 0.00 | 93 | 1011.3 |
| 20260509082837 | 57 | 157 | 0.0 | 0.0 | 0.00 | 0.00 | 0.00 | 93 | 1011.5 |
| 20260509082333 | 57 | 157 | 0.0 | 0.0 | 0.00 | 0.00 | 0.00 | 93 | 1011.3 |
| 20260509081831 | 57 | 150 | 0.0 | 0.0 | 0.00 | 0.00 | 0.00 | 92 | 1011.4 |
| 20260509081328 | 57 | 150 | 0.0 | 0.0 | 0.00 | 0.00 | 0.00 | 92 | 1011.3 |
| 20260509080826 | 58 | 149 | 0.0 | 0.0 | 0.00 | 0.00 | 0.00 | 92 | 1011.3 |
| 20260509080323 | 58 | 149 | 0.0 | 0.0 | 0.00 | 0.00 | 0.00 | 92 | 1011.6 |
| 20260509075822 | 58 | 146 | 0.0 | 0.0 | 0.00 | 0.00 | 0.00 | 92 | 1011.5 |
| 20260509075318 | 58 | 143 | 0.0 | 0.0 | 0.00 | 0.00 | 0.00 | 92 | 1011.9 |
| 20260509074815 | 58 | 147 | 0.0 | 0.0 | 0.00 | 0.00 | 0.00 | 92 | 1011.7 |
| 20260509074313 | 58 | 159 | 0.0 | 0.0 | 0.00 | 0.00 | 0.00 | 92 | 1011.7 |
| 20260509073809 | 58 | 160 | 0.0 | 0.0 | 0.00 | 0.00 | 0.00 | 92 | 1011.7 |
| 20260509073306 | 58 | 160 | 0.0 | 0.0 | 0.00 | 0.00 | 0.00 | 92 | 1011.8 |
| 20260509072803 | 59 | 160 | 0.0 | 0.0 | 0.00 | 0.00 | 0.00 | 92 | 1011.8 |
| 20260509072259 | 59 | 160 | 0.0 | 0.0 | 0.00 | 0.00 | 0.00 | 92 | 1012.0 |
| 20260509071756 | 59 | 160 | 0.0 | 0.0 | 0.00 | 0.00 | 0.00 | 92 | 1011.8 |
| 20260509071253 | 59 | 159 | 0.0 | 0.0 | 0.00 | 0.00 | 0.00 | 92 | 1011.9 |
| 20260509070750 | 59 | 159 | 0.0 | 0.0 | 0.00 | 0.00 | 0.00 | 92 | 1012.1 |
| 20260509070246 | 59 | 157 | 0.0 | 0.0 | 0.00 | 0.00 | 0.00 | 91 | 1011.8 |
| 20260509065743 | 59 | 149 | 0.0 | 0.0 | 0.00 | 0.00 | 0.00 | 91 | 1012.0 |
| 20260509065239 | 59 | 158 | 0.0 | 0.0 | 0.00 | 0.00 | 0.00 | 91 | 1012.1 |
| 20260509064735 | 60 | 138 | 0.0 | 0.0 | 0.00 | 0.00 | 0.00 | 91 | 1011.8 |
| 20260509064233 | 60 | 153 | 0.0 | 0.0 | 0.00 | 0.00 | 0.00 | 91 | 1011.9 |
| 20260509063730 | 60 | 148 | 0.0 | 0.0 | 0.00 | 0.00 | 0.00 | 91 | 1011.9 |
| 20260509063226 | 60 | 129 | 0.0 | 0.0 | 0.00 | 0.00 | 0.00 | 91 | 1011.9 |
| 20260509062724 | 61 | 139 | 0.0 | 0.9 | 0.00 | 0.00 | 0.00 | 91 | 1012.0 |
| 20260509062221 | 60 | 144 | 0.0 | 0.0 | 0.00 | 0.00 | 0.00 | 91 | 1012.1 |
| 20260509061718 | 60 | 151 | 0.0 | 0.0 | 0.00 | 0.00 | 0.00 | 90 | 1012.3 |
| 20260509061216 | 60 | 155 | 0.0 | 0.0 | 0.00 | 0.00 | 0.00 | 90 | 1012.0 |
| 20260509060713 | 60 | 156 | 0.0 | 0.0 | 0.00 | 0.00 | 0.00 | 91 | 1012.1 |
| 20260509060209 | 60 | 155 | 0.0 | 0.0 | 0.00 | 0.00 | 0.00 | 91 | 1012.2 |
| 20260509055704 | 60 | 145 | 0.0 | 0.0 | 0.00 | 0.00 | 0.00 | 90 | 1012.1 |
| 20260509055201 | 60 | 145 | 0.0 | 0.0 | 0.00 | 0.00 | 0.00 | 90 | 1011.9 |
| 20260509054657 | 60 | 145 | 0.0 | 0.0 | 0.00 | 0.00 | 0.00 | 90 | 1011.9 |
| 20260509054155 | 60 | 145 | 0.0 | 0.0 | 0.00 | 0.00 | 0.00 | 89 | 1011.8 |
| 20260509053653 | 61 | 145 | 0.0 | 0.0 | 0.00 | 0.00 | 0.00 | 89 | 1012.0 |
| 20260509053150 | 61 | 145 | 0.0 | 0.0 | 0.00 | 0.00 | 0.00 | 89 | 1011.8 |
| 20260509052648 | 61 | 145 | 0.0 | 0.0 | 0.00 | 0.00 | 0.00 | 89 | 1011.9 |
| 20260509052145 | 62 | 145 | 0.0 | 0.0 | 0.00 | 0.00 | 0.00 | 89 | 1012.0 |
| 20260509051643 | 62 | 145 | 0.0 | 0.0 | 0.00 | 0.00 | 0.00 | 89 | 1012.0 |
| 20260509051140 | 62 | 145 | 0.0 | 0.0 | 0.00 | 0.00 | 0.00 | 89 | 1012.1 |
| 20260509050637 | 62 | 145 | 0.0 | 0.0 | 0.00 | 0.00 | 0.00 | 89 | 1011.8 |
| 20260509050133 | 62 | 145 | 0.0 | 0.0 | 0.00 | 0.00 | 0.00 | 89 | 1011.9 |
| 20260509045631 | 62 | 156 | 0.0 | 0.0 | 0.00 | 0.93 | 0.93 | 89 | 1011.9 |
| 20260509045128 | 62 | 149 | 0.0 | 0.0 | 0.00 | 0.93 | 0.93 | 89 | 1012.0 |
| 20260509044625 | 62 | 145 | 0.0 | 0.0 | 0.00 | 0.93 | 0.93 | 89 | 1011.9 |
| 20260509044122 | 63 | 94 | 0.0 | 0.0 | 0.00 | 0.93 | 0.93 | 90 | 1011.9 |
| 20260509043618 | 63 | 142 | 0.0 | 0.0 | 0.00 | 0.93 | 0.93 | 90 | 1011.8 |
| 20260509043114 | 63 | 143 | 0.0 | 0.0 | 0.00 | 0.93 | 0.93 | 90 | 1011.9 |
| 20260509042611 | 63 | 136 | 0.0 | 0.0 | 0.00 | 0.93 | 0.93 | 90 | 1012.0 |
| 20260509042106 | 63 | 126 | 0.0 | 0.0 | 0.00 | 0.93 | 0.93 | 90 | 1011.9 |
| 20260509041603 | 63 | 105 | 0.0 | 0.9 | 0.00 | 0.93 | 0.93 | 90 | 1011.7 |
| 20260509041101 | 63 | 136 | 0.0 | 0.0 | 0.00 | 0.93 | 0.93 | 90 | 1011.9 |
| 20260509040600 | 62 | 147 | 0.0 | 0.0 | 0.00 | 0.93 | 0.93 | 89 | 1011.7 |
| 20260509040056 | 62 | 136 | 0.0 | 0.0 | 0.00 | 0.93 | 0.93 | 89 | 1011.6 |
| 20260509035553 | 62 | 153 | 0.9 | 0.9 | 0.00 | 0.93 | 0.93 | 89 | 1011.1 |
| 20260509035049 | 62 | 146 | 0.0 | 0.0 | 0.00 | 0.93 | 0.93 | 89 | 1011.5 |
| 20260509034548 | 62 | 152 | 0.0 | 0.0 | 0.00 | 0.93 | 0.93 | 89 | 1011.1 |
| 20260509034044 | 62 | 151 | 0.0 | 0.0 | 0.00 | 0.93 | 0.93 | 88 | 1011.0 |
| 20260509033541 | 62 | 148 | 0.0 | 0.0 | 0.00 | 0.93 | 0.93 | 88 | 1011.0 |
| 20260509033039 | 62 | 151 | 0.0 | 0.9 | 0.00 | 0.93 | 0.93 | 87 | 1010.9 |
| 20260509032536 | 62 | 150 | 0.0 | 0.0 | 0.00 | 0.93 | 0.93 | 87 | 1010.8 |
| 20260509032032 | 63 | 150 | 0.0 | 0.0 | 0.00 | 0.93 | 0.93 | 87 | 1010.5 |
| 20260509031530 | 63 | 150 | 0.0 | 0.0 | 0.00 | 0.93 | 0.93 | 86 | 1010.7 |
| 20260509031027 | 64 | 132 | 0.0 | 0.9 | 0.00 | 0.93 | 0.93 | 85 | 1010.6 |
| 20260509030525 | 64 | 121 | 0.9 | 0.9 | 0.00 | 0.93 | 0.93 | 85 | 1010.2 |
| 20260509030022 | 64 | 90 | 0.0 | 0.9 | 0.00 | 0.93 | 0.93 | 84 | 1010.5 |
| 20260509025518 | 65 | 153 | 0.0 | 0.0 | 0.00 | 0.93 | 0.93 | 83 | 1010.3 |
| 20260509025013 | 65 | 148 | 0.0 | 0.0 | 0.00 | 0.93 | 0.93 | 82 | 1010.1 |
| 20260509024509 | 65 | 163 | 0.0 | 0.0 | 0.00 | 0.93 | 0.93 | 82 | 1009.8 |
| 20260509024006 | 65 | 169 | 0.0 | 0.9 | 0.00 | 0.93 | 0.93 | 82 | 1009.8 |
| 20260509023504 | 65 | 166 | 0.9 | 0.9 | 0.00 | 0.93 | 0.93 | 82 | 1009.7 |
| 20260509023000 | 65 | 165 | 0.9 | 0.9 | 0.00 | 0.93 | 0.93 | 83 | 1009.5 |